This demonstration page uses our WeatherBlox Daily Observations layout. Learn more.

Left ArrowRight Arrow

Hourly Observations for August 11, 2022

Temp ( °F °C ) Dew Point ( °F °C ) Humidity (%) Winds ( mph kmh ) Pressure ( in mb ) Visibility ( mi km ) Precip ( " mm )
12:53 am 00:53 Mostly Cloudy 79 26.1 60 15.6 52 52 ESE 7 11 30.02 1017 10 16 0.00 0.00
1:53 am 01:53 Clear 78 25.6 60 15.6 54 54 SE 7 11 30.03 1017 10 16 0.00 0.00
2:53 am 02:53 Clear 76 24.4 62 16.7 62 62 ESE 5 7 30.01 1016 10 16 0.00 0.00
3:53 am 03:53 Clear 75 23.9 62 16.7 64 64 NE 5 7 30.00 1016 10 16 0.00 0.00
4:53 am 04:53 Mostly Cloudy 74 23.3 62 16.7 66 66 NE 6 9 30.00 1016 10 16 0.00 0.00
5:53 am 05:53 Clear 74 23.3 62 16.7 66 66 ENE 6 9 29.99 1016 10 16 0.00 0.00
6:53 am 06:53 Clear 73 22.8 62 16.7 68 68 E 6 9 29.99 1016 10 16 0.00 0.00
7:53 am 07:53 Sunny 73 22.8 63 17.2 71 71 NNE 3 6 30.01 1016 10 16 0.00 0.00
8:53 am 08:53 Sunny 78 25.6 61 16.1 56 56 ENE 9 15 30.02 1017 10 16 0.00 0.00
9:53 am 09:53 Sunny 81 27.2 61 16.1 51 51 NE 3 6 30.03 1017 10 16 0.00 0.00
10:53 am 10:53 Sunny 84 28.9 60 15.6 45 45 ENE 5 7 30.03 1017 10 16 0.00 0.00
11:53 am 11:53 Sunny 88 31.1 60 15.6 39 39 N 10 17 30.02 1017 10 16 0.00 0.00
12:53 pm 12:53 Sunny 88 31.1 59 15 38 38 ESE 3 6 30.00 1016 10 16 0.00 0.00
1:53 pm 13:53 Sunny 92 33.3 57 13.9 31 31 undefined N/A 29.97 1015 10 16 0.00 0.00
2:53 pm 14:53 Sunny 93 33.9 57 13.9 30 30 ENE 8 13 29.94 1014 10 16 0.00 0.00
3:53 pm 15:53 Mostly Sunny 94 34.4 55 12.8 27 27 VRB 7 11 29.92 1013 10 16 0.00 0.00
4:53 pm 16:53 Mostly Cloudy 92 33.3 56 13.3 30 30 ENE 17 28 29.90 1012 10 16 0.00 0.00
5:53 pm 17:53 Sunny 92 33.3 55 12.8 29 29 ESE 8 13 29.88 1012 10 16 0.00 0.00
6:46 pm 18:46 Cloudy with Nearby Thunderstorms 82 27.8 61 16.1 49 49 NNW 28 44 29.88 1012 9 14 0.00 0.00
6:53 pm 18:53 Cloudy with Nearby Thunderstorms 81 27.2 62 16.7 53 53 NW 22 35 29.93 1014 10 16 0.00 0.00
7:33 pm 19:33 Mostly Cloudy with Light Rain 79 26.1 65 18.3 62 62 WNW 21 33 29.86 1011 9 14 0.01 0.13
7:53 pm 19:53 Mostly Cloudy 78 25.6 63 17.2 60 60 WNW 22 35 29.91 1013 10 16 0.01 0.13
8:53 pm 20:53 Partly Cloudy 76 24.4 64 17.8 67 67 W 15 24 29.99 1016 10 16 0.01 0.13
9:53 pm 21:53 Clear 73 22.8 67 19.4 81 81 SW 15 24 29.98 1015 10 16 0.00 0.00
10:53 pm 22:53 Clear 73 22.8 65 18.3 76 76 W 5 7 30.00 1016 10 16 0.00 0.00
11:53 pm 23:53 Clear 72 22.2 67 19.4 84 84 N 12 19 29.98 1015 10 16 0.00 0.00

Powered by AerisWeather